www.pogodaiklimat.ru

Погода и климат >> Архив погоды >> Бельгия >> Коксейде


ПОГОДА в Коксейде

  • Прогноз погоды в Коксейде
  • Монитор погоды в Коксейде

АРХИВ ПОГОДЫ в Коксейде

Время (UTC), дата Ветер
(напр.,м/с)
 
Видим.   Явления Облачность Т
(С)
Тd
(С)
f
(%)
Тe
(С)
Тes
(С)
Комфортность P
(гПа)
Po
(гПа)
Тmin
(С)
Tmax
(С)
R
(мм)
R24
(мм)
S
(см)
16 13.09 СВ 6
{9}
19 км н/о +17.7 +12.3 71 +17 +17 1034.7 1034.0
17 13.09 СВ 6
{9}
18 км н/о +16.7 +11.6 72 +16 +16 1034.7 1034.0
18 13.09 СВ 4
{10}
18 км н/о +15.5 +11.2 76 +15 +15 1035.2 1034.4 +20.4 0.0
19 13.09 СВ 3
{6}
16 км н/о +14.6 +10.7 77 +14 +14 1035.5 1034.7
20 13.09 СВ 2
{4}
17 км н/о +13.3 +10.1 81 +13 +13 1035.5 1034.7
21 13.09 СВ 2
{6}
16 км н/о +12.2 +9.6 84 +11 +11 1035.7 1035.0
22 13.09 СВ 2
{3}
15 км н/о +12.2 +9.5 84 +11 +11 1035.7 1034.9
23 13.09 СВ 2
{4}
7000 м н/о +10.8 +8.4 85 +9 +9 1035.7 1035.0
00 14.09 нст 1
{6}
14 км н/о +10.6 +8.6 87 +10 +10 1035.4 1034.5
01 14.09
{1}
11 км н/о +10.1 +8.3 89 1034.9 1034.0
02 14.09
{2}
12 км н/о +9.7 +8.2 90 1034.7 1034.0
03 14.09 СВ 2
{2}
12 км н/о +10.2 +9.0 92 +9 +9 1034.7 1034.0
04 14.09
{3}
10 км н/о +10.8 +9.4 91 1034.2 1033.4
05 14.09 СВ 2
{2}
9000 м дымка н/о +10.3 +9.4 94 +9 +9 1034.0 1033.2
06 14.09 нст 1
{3}
7000 м н/о +10.3 +9.3 94 +10 +10 1033.9 1033.2 +8.9
07 14.09 СВ 2
{3}
9000 м н/о +13.3 +11.7 90 +13 +13 1034.2 1033.5
08 14.09 В 2
{3}
15 км н/о +15.6 +11.7 78 +16 +16 1034.0 1033.2
09 14.09 нст 1
{3}
15 км н/о +17.3 +11.3 68 +18 +18 1033.7 1033.0
10 14.09 В 2
{3}
10 км н/о +19.3 +11.5 61 +21 +21 комфорт 1033.4 1032.7
11 14.09 В 2
{6}
16 км н/о +20.9 +10.4 51 +23 +23 комфорт 1032.9 1032.0
12 14.09 С 4
{6}
18 км н/о +20.7 +11.4 55 +23 +23 комфорт 1032.2 1031.5
13 14.09 С 4
{7}
15 км н/о +21.1 +11.6 55 +23 +23 комфорт 1031.7 1031.0
14 14.09 С 5
{7}
16 км н/о +20.7 +10.8 53 +22 +22 комфорт 1031.0 1030.2
15 14.09 С 5
{8}
15 км н/о +20.5 +11.5 56 +22 +22 комфорт 1030.2 1029.4
16 14.09 СВ 5
{7}
19 км н/о +19.8 +11.7 60 +21 +21 комфорт 1029.7 1029.0
17 14.09 СВ 2
{7}
20 км н/о +18.6 +10.8 60 +20 +20 1029.5 1028.7
18 14.09 С 2
{8}
19 км н/о +15.8 +10.4 70 +16 +16 1029.2 1028.4 +22.2
19 14.09 С 2
{3}
19 км н/о +14.8 +10.0 73 +15 +15 1029.2 1028.5
20 14.09
{2}
16 км н/о +14.0 +10.4 79 1029.2 1028.4
21 14.09 нст 1
{3}
12 км н/о +13.1 +10.2 83 +13 +13 1028.4 1027.7
22 14.09 штиль 0
{1}
10 км н/о +11.6 +9.8 89 +11 +11 1028.2 1027.5
23 14.09
{1}
6000 м н/о +10.8 +9.4 91 1027.5 1026.7
00 15.09 нст 1
{3}
2700 м дымка н/о +9.5 +8.6 94 +9 +9 1027.2 1026.5
01 15.09
{1}
6000 м туман н/о +9.5 +8.6 94 1026.9 1026.0
02 15.09
{1}
2300 м дымка {туман} н/о +9.1 +8.0 93 1026.0 1025.4
03 15.09 нст 1
{2}
1800 м дымка {туман} н/о +8.6 +7.8 95 +8 +8 1025.7 1025.0
04 15.09
{2}
2700 м дымка {туман} н/о +8.5 +7.0 90 1025.4 1024.7
05 15.09
{2}
1300 м туман {дождь} н/о +8.1 +7.2 94 1025.5 1024.7
06 15.09 нст 1
{2}
1600 м дымка {дождь, туман} н/о +8.7 +7.9 95 +8 +8 1025.2 1024.5 +7.9
07 15.09
{3}
5000 м дымка н/о +11.1 +10.3 95 1025.2 1024.4
08 15.09 ЮЗ 2
{3}
6000 м н/о +15.6 +12.3 81 +16 +16 1025.4 1024.7
09 15.09 З 2
{4}
18 км н/о +18.9 +12.9 68 +20 +20 1025.5 1024.7
10 15.09 З 4
{5}
20 км н/о +21.1 +9.5 47 +22 +22 комфорт 1025.4 1024.5
11 15.09 З 4
{6}
13 км н/о +22.2 +8.4 41 +23 +23 комфорт 1025.0 1024.2
12 15.09 СЗ 5
{8}
19 км н/о +20.7 +11.3 55 +23 +23 комфорт 1024.7 1024.0
13 15.09 СЗ 4
{7}
20 км 4/0
[Ci fib]
+20.7 +11.3 55 +23 +28 комфорт 1024.4 1023.7
14 15.09 СЗ 4
{7}
20 км 4/0
[Ci fib]
+21.4 +11.2 52 +23 +27 комфорт 1024.0 1023.2
15 15.09 СЗ 4
{7}
20 км 4/0
[Ci fib]
+21.1 +10.5 51 +23 +25 комфорт 1023.5 1022.7
16 15.09 З 3
{6}
20 км 4/0
[Ci fib]
+20.7 +11.8 57 +23 +25 комфорт 1023.1 1022.3
17 15.09 СЗ 3
{5}
20 км 4/0
[Ci fib]
+19.1 +12.7 66 +20 +21 1023.1 1022.3
18 15.09 нст 1
{7}
20 км 4/0
[Ci fib]
+18.3 +12.2 68 +20 +20 1023.1 1022.3 +22.4
19 15.09
{1}
20 км 4/0
[Ci fib]
+16.0 +12.5 80 1023.2 1022.5
20 15.09 ЮВ 2
{3}
20 км 4/0
[Ci fib]
+15.0 +11.8 81 +15 +15 1023.2 1022.5
21 15.09 нст 1
{3}
15 км 4/0
[Ci fib]
+14.5 +11.1 80 +15 +15 1023.1 1022.3
22 15.09
{2}
14 км н/о +14.0 +11.2 83 1022.8 1022.2
23 15.09
{1}
12 км н/о +13.4 +10.9 85 1022.8 1022.1
00 16.09 нст 1
{3}
10 км н/о +14.1 +11.5 84 +14 +14 1022.2 1021.3
01 16.09
{2}
11 км н/о +13.8 +10.9 83 1022.0 1021.2
02 16.09
{2}
13 км н/о +14.1 +10.2 77 1021.5 1020.7
03 16.09 нст 1
{2}
14 км н/о +13.6 +9.7 77 +14 +14 1021.0 1020.2
04 16.09
{2}
13 км н/о +13.7 +9.7 77 1020.7 1020.0
05 16.09 ЮЗ 2
{2}
10 км 9/0
[Ac trans]
+13.9 +10.6 80 +13 +13 1020.7 1019.8
06 16.09 ЮЗ 2
{3}
10 км 9/0
[Ac trans]
+14.3 +11.8 85 +14 +14 1020.5 1019.7 +12.3
07 16.09
{3}
8000 м в посл. час дождь 9/3 1140 м
[Sc Ac As]
+15.6 +13.0 85 1020.7 1020.1
08 16.09 ЮЗ 2
{2}
8000 м 9/4 240 м
[Sc Ac As]
+17.6 +15.4 87 +18 +19 1021.1 1020.2
09 16.09 З 2
{4}
12 км {дождь} 9/3 240 м
[Sc Ac As]
+18.7 +16.2 85 +20 +22 1021.2 1020.5
10 16.09 З 3
{4}
15 км 9/5 360 м
[Sc Ac As]
+19.4 +16.3 82 +22 +23 комфорт 1021.2 1020.6
11 16.09 СЗ 3
{4}
15 км в посл. час дождь 9/5 360 м
[Sc Ac As]
+19.5 +14.9 75 +22 +23 комфорт 1021.2 1020.6
12 16.09 СЗ 4
{5}
15 км {дождь} 9/9 480 м
[Sc]
+19.4 +14.8 75 +21 +22 комфорт 1021.3 1020.7 0.0
13 16.09 С 3
{5}
4500 м дождь 9/9 300 м
[Sc]
+18.5 +15.2 81 +19 +20 1021.5 1020.7
14 16.09 С 4
{6}
9000 м в посл. час дождь {морось} 9/9 240 м
[Cu Sc]
+17.7 +15.4 86 +17 +18 1021.3 1020.7
15 16.09 СЗ 3
{6}
12 км {дождь, морось} 9/9 240 м
[Sc]
+17.3 +15.2 87 +17 +18 1021.6 1020.7
16 16.09 СЗ 3
{5}
18 км н/о +17.7 +14.8 83 +18 +18 1021.2 1020.6
17 16.09 СВ 4
{5}
20 км н/о +17.2 +15.0 87 +17 +17 1021.3 1020.7
18 16.09 СВ 4
{6}
15 км {дождь, морось} н/о +16.2 +14.3 89 +15 +15 1021.7 1020.8 +20.2 0.2
19 16.09 СВ 3
{5}
7000 м н/о +15.6 +14.2 91 +15 +15 1022.1 1021.3
20 16.09 СВ 2
{4}
15 км н/о +15.5 +14.1 91 +15 +15 1022.5 1021.7
21 16.09 СВ 2
{5}
12 км н/о +15.3 +13.6 90 +15 +15 1022.6 1021.8
22 16.09
{4}
12 км {дождь, морось} н/о +15.1 +13.3 89 1022.7 1022.1
23 16.09 СВ 2
{5}
11 км {дождь, морось} н/о +15.0 +12.8 87 +15 +15 1023.0 1022.2
00 17.09 нст 1
{5}
6000 м {дождь, морось} н/о +14.6 +12.8 89 +15 +15 1022.7 1021.8 0.1
01 17.09
{1}
6000 м н/о +14.3 +12.9 91 1022.7 1022.0
02 17.09
{3}
11 км н/о +14.6 +12.6 88 1022.3 1021.6
03 17.09 нст 1
{3}
5000 м н/о +14.1 +12.6 91 +14 +14 1022.5 1021.7
04 17.09
{3}
17 км н/о +14.6 +10.3 75 1022.6 1021.7
05 17.09 С 2
{3}
15 км 9/9 1200 м
[Sc]
+14.1 +9.3 73 +14 +14 1022.5 1021.7
06 17.09 С 2
{3}
15 км 8/8 1200 м
[Sc Ci fib]
+13.5 +9.0 74 +13 +13 1022.8 1022.1 +13.1 0.1
07 17.09 С 2
{5}
15 км 9/8 1050 м
[Sc Ci fib]
+15.4 +8.7 64 +15 +16 1023.2 1022.5
08 17.09 СЗ 3
{5}
20 км 9/9 1200 м
[Sc]
+16.0 +9.4 65 +16 +16 1023.7 1023.0
09 17.09 С 4
{6}
20 км 6/6 840 м
[Cu Sc Ci fib]
+17.1 +9.7 62 +17 +18 1023.7 1023.1
10 17.09 СЗ 5
{7}
20 км 6/6 840 м
[Cu Sc Ci fib]
+16.7 +10.3 66 +16 +17 1024.2 1023.5
11 17.09 СЗ 5
{8}
20 км 6/6 720 м
[Cu Sc Ci fib]
+16.6 +9.6 63 +16 +18 1024.2 1023.6
12 17.09 С 6
{9}
20 км 6/6 720 м
[Cu Sc Ci fib]
+17.0 +9.9 63 +16 +17 1024.4 1023.7
13 17.09 С 6
{9}
20 км 5/4 800 м
[Cu Sc Ci fib]
+16.7 +8.7 59 +16 +18 1024.7 1024.0
14 17.09 С 6
{9}
20 км 5/4 800 м
[Cu Sc Ci fib]
+16.8 +8.3 57 +16 +17 1024.7 1024.0
15 17.09 С 7
{10}
20 км 5/4 900 м
[Cu Sc Ci fib]
+16.3 +8.3 59 +15 +16 1024.9 1024.2
16 17.09 С 7
{10}
19 км н/о +16.1 +7.2 56 +15 +15 1025.2 1024.5
17 17.09 С 6
{9}
16 км н/о +15.3 +7.3 59 +14 +14 1025.4 1024.7
18 17.09 С 5
{10}
16 км н/о +14.5 +5.9 56 +13 +13 1025.7 1025.0 +17.8
19 17.09 С 5
{8}
14 км н/о +14.5 +7.1 61 +13 +13 1026.0 1025.4
20 17.09 С 6
{10}
14 км н/о +13.8 +4.7 54 +12 +12 1026.4 1025.7
21 17.09 СВ 3
{10}
13 км н/о +13.2 +6.2 62 +12 +12 1026.7 1026.0
22 17.09 СВ 3
{8}
13 км н/о +12.4 +4.8 60 +11 +11 1027.0 1026.2
23 17.09 СВ 5
{7}
12 км н/о +13.5 +6.8 64 +12 +12 1027.2 1026.4
00 18.09 СВ 4
{10}
14 км н/о +12.1 +5.0 62 +10 +10 1027.2 1026.5
01 18.09 С 2
{5}
13 км н/о +11.3 +4.8 64 +10 +10 1027.2 1026.5
02 18.09 СВ 3
{6}
13 км н/о +11.6 +5.0 64 +10 +10 1027.2 1026.4
03 18.09 нст 1
{6}
12 км н/о +9.6 +4.5 70 +9 +9 1027.2 1026.5
04 18.09 С 3
{5}
15 км н/о +11.6 +6.4 70 +10 +10 1027.0 1026.4
05 18.09 СВ 3
{5}
15 км 5/4 900 м
[Cu Sc Ci fib]
+11.9 +6.4 69 +10 +10 1027.5 1026.7
06 18.09 нст 1
{6}
15 км 6/4 900 м
[Cu Sc Ci fib]
+11.1 +6.8 75 +11 +11 1027.7 1027.0 +9.1
07 18.09
{1}
15 км 6/4 900 м
[Cu Sc Ci fib]
+13.3 +7.8 69 1028.5 1027.7
08 18.09
{2}
15 км 6/5 900 м
[Cu Sc Ci fib]
+15.6 +7.1 57 1028.9 1028.2
09 18.09 нст 1
{4}
15 км 5/4 1050 м
[Cu Sc Ci fib]
+16.8 +7.2 53 +18 +21 1029.2 1028.5
10 18.09 С 4
{8}
15 км 5/4 1050 м
[Cu Sc Ci fib]
+16.2 +7.1 55 +16 +18 1029.2 1028.5
11 18.09 С 5
{8}
15 км 4/4 1200 м
[Cu Sc]
+16.4 +6.5 52 +16 +18 1029.2 1028.5
12 18.09 С 6
{9}
15 км 4/4 1200 м
[Cu Sc]
+17.3 +6.5 49 +17 +19 1029.0 1028.2
13 18.09 С 6
{9}
15 км 4/4 1200 м
[Cu Sc]
+17.1 +5.4 46 +16 +18 1028.9 1028.2
14 18.09 С 6
{9}
20 км 4/4 1200 м
[Cu Sc]
+17.1 +6.4 49 +16 +18 1028.7 1028.0
15 18.09 С 6
{9}
16 км н/о +16.6 +5.5 48 +16 +16 1028.9 1028.2
16 18.09 СВ 6
{9}
20 км н/о +16.0 +6.3 53 +15 +15 1028.7 1028.0
17 18.09 СВ 5
{8}
16 км н/о +15.1 +6.5 56 +14 +14 1028.9 1028.0
18 18.09 СВ 4
{9}
16 км н/о +14.0 +6.8 62 +13 +13 1029.0 1028.2 +17.8
19 18.09 СВ 4
{6}
18 км н/о +13.5 +6.6 63 +12 +12 1029.4 1028.5
20 18.09 СВ 2
{5}
16 км н/о +12.6 +6.5 66 +12 +12 1029.5 1028.9
21 18.09 СВ 3
{6}
17 км н/о +12.5 +6.6 67 +11 +11 1029.7 1029.0
22 18.09 В 2
{5}
13 км н/о +11.2 +6.3 72 +10 +10 1030.2 1029.4
23 18.09
{3}
15 км н/о +12.0 +7.1 72 1030.5 1029.7
00 19.09 В 3
{6}
16 км н/о +13.1 +8.2 72 +12 +12 1030.7 1029.9
01 19.09
{5}
16 км н/о +12.3 +8.1 76 1030.5 1029.7
02 19.09 В 3
{4}
17 км н/о +13.1 +8.4 73 +12 +12 1030.5 1029.7
03 19.09 нст 1
{5}
15 км н/о +12.7 +8.5 76 +13 +13 1030.2 1029.5
04 19.09
{1}
14 км н/о +12.3 +8.4 77 1030.2 1029.5
05 19.09
{1}
12 км 9/9 1050 м
[Sc]
+12.3 +8.6 78 1030.5 1029.7
06 19.09 нст 1
{5}
15 км 9/9 1050 м
[Sc]
+12.3 +8.6 78 +12 +12 1031.0 1030.2 +11.1
07 19.09 В 2
{3}
15 км 9/9 1050 м
[Sc]
+13.1 +8.0 71 +12 +13 1031.5 1030.7
08 19.09
{4}
15 км 9/9 960 м
[Sc]
+13.5 +8.8 73 1032.0 1031.2
09 19.09 нст 1
{4}
18 км 9/9 1050 м
[Sc]
+14.6 +8.3 66 +15 +16 1032.2 1031.4
10 19.09 СВ 2
{4}
18 км 9/9 1050 м
[Sc]
+15.8 +8.9 64 +16 +17 1032.2 1031.4
11 19.09 С 3
{5}
18 км 9/9 900 м
[Sc]
+16.5 +9.0 61 +16 +17 1032.0 1031.2
12 19.09 С 4
{7}
18 км 6/6 900 м
[Sc Ci fib]
+17.1 +8.7 58 +17 +19 1031.5 1030.9
13 19.09 С 5
{7}
20 км 6/6 900 м
[Sc Ci fib]
+17.5 +9.3 59 +17 +19 1031.4 1030.7
14 19.09 С 6
{9}
20 км 6/6 900 м
[Sc Ci fib]
+16.9 +9.3 61 +16 +17 1031.2 1030.5
15 19.09 С 6
{9}
20 км 5/4 900 м
[Sc Ci fib]
+17.0 +9.8 63 +16 +17 1030.7 1030.0
16 19.09 СВ 6
{8}
20 км 3/1 900 м
[Cu hum Ci fib]
+16.4 +9.1 62 +15 +16 1030.7 1030.0
17 19.09 СВ 5
{8}
19 км н/о +15.6 +9.0 65 +14 +14 1030.5 1029.7
18 19.09 СВ 3
{9}
18 км н/о +14.2 +9.0 71 +13 +13 1030.5 1029.9 +17.9
19 19.09 СВ 3
{5}
17 км н/о +13.3 +9.3 77 +12 +12 1030.5 1029.9
20 19.09 В 2
{4}
14 км н/о +12.6 +8.9 78 +12 +12 1030.7 1030.0
21 19.09 нст 2
{5}
12 км н/о +11.1 +8.3 83 +10 +10 1030.7 1030.0
22 19.09
{3}
12 км н/о +10.3 +7.8 84 1030.7 1030.0
23 19.09 СВ 2
{3}
11 км н/о +9.3 +7.3 87 +8 +8 1030.7 1030.0
00 20.09 СВ 2
{5}
6000 м н/о +9.6 +7.8 89 +8 +8 1030.5 1029.9
01 20.09 СВ 2
{3}
4200 м дымка н/о +9.1 +7.5 90 +7 +7 1030.5 1029.7
02 20.09 В 3
{3}
3400 м дымка н/о +8.3 +6.7 90 +6 +6 1029.9 1029.2
03 20.09 нст 1
{3}
3400 м дымка н/о +8.1 +6.7 91 +7 +7 1029.7 1029.0
04 20.09
{2}
1500 м дымка {дождь} н/о +8.3 +6.8 90 1029.2 1028.5
05 20.09 СВ 2
{2}
8000 м местами туман поземный 3/0
[Ci fib]
+8.3 +6.3 87 +6 +6 1028.9 1028.2
06 20.09 нст 1
{4}
9000 м местами туман поземный 3/0
[Ci fib]
+8.3 +6.1 86 +8 +8 1029.0 1028.2 +7.9
07 20.09 В 3
{4}
10 км 4/0
[Ci fib]
+10.0 +7.9 87 +8 +8 1029.0 1028.4
08 20.09 В 3
{4}
15 км 4/0
[Ci fib]
+12.7 +7.4 70 +11 +13 1029.2 1028.5
09 20.09 В 6
{7}
15 км 4/0
[Ac As Cs]
+16.2 +5.6 49 +15 +17 1029.1 1028.3
10 20.09 В 5
{8}
20 км 4/0
[Ci fib]
+17.1 +4.1 42 +16 +20 1028.2 1027.5
11 20.09 В 5
{8}
20 км 4/0
[Ci fib]
+18.6 +4.1 38 +18 +22 1027.5 1026.7
12 20.09 В 5
{8}
20 км 4/0
[Ci fib]
+19.3 +2.0 32 +19 +23 1026.9 1026.2
14 20.09 В 4
{8}
20 км 4/0
[Ci fib]
+20.6 +2.2 30 +21 +25 комфорт 1025.2 1024.5
15 20.09 В 6
{9}
20 км 4/0
[Ci fib]
+21.2 +2.3 29 +21 +23 комфорт 1024.5 1023.7

 

Местоположение метеостанции Коксейде (Бельгия): широта 51.08 долгота 2.65 высота над уровнем моря 9 м.

В архиве по умолчанию представлена погода в Коксейде за последнюю неделю. Архивные данные за месяц целиком и за предыдущие месяцы, начиная с января 2011 года, Вы можете получить, выбрав интересующий диапазон дат из раскрывающегося списка и нажав кнопку "Ввод!".


*Определитесь, кто Вы:
робот инопланетянин человек

Внимание! Время в таблицах - всемирное. Для получения местного времени необходимо прибавить поправку, которая равна 1 ч.

Смотрите также архив погоды в соседних городах и на ближайших метеорологических станциях:

Погода в Остенде (Бельгия) (20 км)
Погода в Дюнкерке (Франция) (23 км)
Погода в Бейтеме (Бельгия) (39 км)
Погода в Зебрюгге (Бельгия) (47 км)
Погода в Цадзанде (Нидерланды) (61 км)
Погода на Отмели Vlakte Van Raan (Нидерланды) (63 км)
Погода в Лилле (Франция) (65 км)
Погода в Семмерзэйке (Бельгия) (73 км)
Погода в Флиссингене (Нидерланды) (78 км)
Погода в Хуфдплате (Нидерланды) (78 км)

Пояснения к столбцам:

Ветер - указаны скорость ветра в м/с - средняя за 10 мин, порывы в срок и между сроками (в фигурных скобках) и направление, откуда дует ветер: С - северный, СВ - северо-восточный, В - восточный, ЮВ - юго-восточный, Ю - южный, ЮЗ - юго-западный, З - западный, СЗ - северо-западный.
Видимость - горизонтальная дальность видимости в метрах или километрах. При видимости от 1 до 10 км при отсутствии осадков обычно наблюдается дымка, при ухудшении видимости до 1 км и менее - туман. В сухую погоду видимость может ухудшаться дымом, пылью или мглою.
Явления - указаны атмосферные явления, наблюдавшиеся в срок или в последний час перед сроком; фигурными скобками обозначены явления, наблюдавшиеся между сроками (за 1-3 часа до срока); квадратными скобками обозначены град или гололедные отложения с указанием их диаметра в мм.
Облачность - указаны через наклонную черту общая и нижняя облачность в баллах и высота нижней границы облаков в метрах; квадратными скобками обозначены формы облаков: Ci - перистые, Cs - перисто-слоистые, Cc - перисто-кучевые, Ac - высококучевые, As - высокослоистые, Sc - слоисто-кучевые, Ns - слоисто-дождевые, Cu - кучевые, Cb - кучево-дождевые. Подробнее классификацию облаков см. в Атласе облаков (PDF).
T - Температура воздуха - температура, измеренная на высоте 2 м над землей.
Td - Температура точки росы - температура, при понижении до которой содержащийся в воздухе водяной пар достигнет насыщения.
f - Относительная влажность воздуха - влажноcть воздуха, измеренная на высоте 2 м над землей.
Te - Эффективная температура - температура, которую ощущает одетый по сезону человек в тени. Характеристика душности погоды. При расчете учитывается влияние влажности воздуха и скорости ветра на теплоощущения человека.
Tes - Эффективная температура на солнце - температура, которую ощущает человек, с поправкой на солнечный нагрев. Характеристика знойности погоды. Зависит от высоты солнца над горизонтом, облачности и скорости ветра. Ночью, в пасмурную погоду, а также при ветре 12 м/с и более поправка равна нулю.
P - Атмосферное давление - приведенное к уровню моря атмосферное давление.
Po - Атмосферное давление - измеренное на уровне метеостанции атмосферное давление.
Tmin - Минимальная температура - минимум температуры воздуха на высоте 2 м над землей.
Tmax - Максимальная температура - максимум температуры воздуха на высоте 2 м над землей.
R - Количество осадков - Количество выпавших осадков за период времени, мм. При наведении курсора мыши на число - период времени, за который выпало указанное количество осадков.
R24 - Количество осадков - Количество выпавших осадков за 24 часа, мм.
S - Снежный покров - Высота снежного покрова, см. При наведении курсора мыши на число - состояние снежного покрова и степень покрытия местности в баллах.